Location: Ferintosh
(52.7647°N, 112.9692°W)
Time: 12:50:32
(UTC+00:00)

Transit 2A Rocket - Pass Details

Date: 26 May 2024
Orbit: 583 x 910 km, 66.7° (Epoch: 14 June)

Event Time Altitude Azimuth Distance (km) Brightness Sun altitude
Rises 19:12:09 0° 318° (NW) 3,414 8.1 58.4°
Reaches altitude 10° 19:14:38 10° 313° (NW) 2,513 7.5 58.4°
Maximum altitude 19:20:14 48° 241° (WSW) 1,163 6.9 58.5°
Drops below altitude 10° 19:26:01 10° 169° (S) 2,590 8.4 58.5°
Sets 19:28:37 0° 164° (SSE) 3,527 8.9 58.5°
